Regional Weather Roundup
Issued by NWS

Home | Current Version | Previous Version | Graphics & Text | Print | Product List | Glossary Off
Versions: 1 2 3 4 5 6 7 8 9 10 11 12 13 14 15 16 17 18 19 20 21 22 23 24 25 26 27 28 29 30 31 32 33 34 35 36 37 38 39 40 41 42 43 44 45 46 47 48 49 50

000
ASUS45 KPSR 180310
RWRAZ

ARIZONA REGIONAL HOURLY WEATHER ROUNDUP
NATIONAL WEATHER SERVICE PHOENIX AZ
800 PM MST WED SEP 17 2014

NOTE: FAIR INDICATES FEW OR NO CLOUDS BELOW 12,000 FEET WITH NO
SIGNIFICANT WEATHER AND/OR OBSTRUCTIONS TO VISIBILITY.

AZZ001>003-036-180400-
NORTHWEST ARIZONA

CITY           SKY/WX    TMP DP  RH WIND       PRES   REMARKS
BULLHEAD CITY  CLEAR     93  63  36 S5        29.70S
KINGMAN        CLEAR     74  62  66 SE9       29.91R
$$

AZZ004>008-015-016-018-180400-
NORTH CENTRAL ARIZONA

CITY           SKY/WX    TMP DP  RH WIND       PRES   REMARKS
GRAND CANYON   CLEAR     57  46  66 CALM      30.16R
PRESCOTT       CLEAR     67  58  72 S3        30.04R
FLAGSTAFF      MOCLDY    57  54  89 CALM      30.19R
PAYSON         MOCLDY    64  61  88 N5        30.06S
PAGE           CLEAR     78  55  44 SE3       29.98R
$$

AZZ009>014-017-180400-
NORTHEAST ARIZONA

CITY           SKY/WX    TMP DP  RH WIND       PRES   REMARKS
WINSLOW        PTCLDY    66  59  78 SW3       30.05R
SAINT JOHNS    CLOUDY    66  58  75 SE5       30.09R
WINDOW ROCK    PTCLDY    66  46  48 CALM      30.19R
SHOW LOW       CLOUDY    59  57  94 N3        30.16R
$$

AZZ023-180400-
GREATER PHOENIX AREA

CITY           SKY/WX    TMP DP  RH WIND       PRES   REMARKS
PHOENIX        PTCLDY    82  70  66 E6        29.74R
BUCKEYE          N/A     81  72  74 N6        29.75S
GLENDALE       PTCLDY    84  72  65 CALM      29.76S
LUKE AFB       CLEAR     84  72  67 N2        29.74S
DEER VALLEY    CLEAR     83  67  58 N5        29.76S
SCOTTSDALE     CLEAR     85  67  54 N3        29.78S
MESA-FALCON    MOCLDY    79  68  69 N10       29.76
MESA-GATEWAY   MOCLDY    81  70  69 CALM      29.79R
CHANDLER       MOCLDY    79  70  73 NE9       29.77R
$$

AZZ027-028-180400-
SOUTHWEST MARICOPA COUNTY AND PINAL COUNTY

CITY           SKY/WX    TMP DP  RH WIND       PRES   REMARKS
CASA GRANDE    MOCLDY    82  63  51 NE13      29.77R
GILA BEND      CLEAR     86  66  51 NE6       29.74R
$$

AZZ503-504-507>509-180400-
SOUTHEAST ARIZONA

CITY           SKY/WX    TMP DP  RH WIND       PRES   REMARKS
TUCSON         CLOUDY    77  64  64 E12       29.84R
DAVIS-MONTHAN  PTCLDY    75  65  70 NE8       29.82R
SIERRA VISTA   RAIN      63  63 100 E12       29.95S FOG
DOUGLAS        RAIN      66  62  87 E17       29.94S
SAFFORD        CLOUDY    70  63  78 E10       29.93R
$$

AZZ020-021-025-026-031-180400-
SOUTHWEST ARIZONA

CITY           SKY/WX    TMP DP  RH WIND       PRES   REMARKS
YUMA           PTCLDY    95  64  35 E10       29.66R
$$

CAZ031-033-041-043-047-048-061-180400-
SOUTHERN CALIFORNIA

CITY           SKY/WX    TMP DP  RH WIND       PRES   REMARKS
DOWNTOWN L.A.  CLEAR     79  59  50 CALM      29.71R
L.A. AIRPORT   PTCLDY    74  59  59 W21       29.73R
SAN DIEGO      PTCLDY    75  67  76 W5        29.78R
BURBANK        CLEAR     85  52  32 W8        29.74R
ONTARIO        MOCLDY    83  49  30 SW8       29.76R
RIVERSIDE      CLEAR     83  48  29 W3        29.76R
PALM SPRINGS   CLEAR     95  63  34 E5        29.69R
EL CENTRO NAS  PTCLDY    95  63  34 E5        29.63S
IMPERIAL       CLEAR     98  64  32 SE5       29.63R HX 100
BLYTHE         CLEAR     93  65  39 CALM      29.67R
NEEDLES        CLEAR     93  63  36 S5        29.71R
$$

NVZ020-UTZ003-180400-
SOUTHERN NEVADA-UTAH

CITY           SKY/WX    TMP DP  RH WIND       PRES   REMARKS
LAS VEGAS      PTCLDY    92  55  28 S10       29.74R
SALT LAKE CITY PTCLDY    79  42  26 SE9       29.88R
$$

NMZ009-TXZ055-180400-
NEW MEXICO-WEST TEXAS

CITY           SKY/WX    TMP DP  RH WIND       PRES   REMARKS
ALBUQUERQUE    CLOUDY    67  58  72 CALM      30.12R
EL PASO        TSTM      67  66  97 NW13      30.01R VSB 1/4
$$


........................KEY........................
SKY/WX - SKY CONDITION/WEATHER
TMP    - TEMPERATURE IN FAHRENHEIT
DP     - DEW POINT IN FAHRENHEIT
RH     - RELATIVE HUMIDITY IN PERCENT
WIND   - DIRECTION AND SPEED IN MILES PER HOUR (MPH)
VRB    - VARIABLE WIND DIRECTION
PRES   - MEAN SEA LEVEL PRESSURE IN INCHES OF MERCURY
         F - FALLING PRESSURE   R - RISING PRESSURE
         S - STEADY PRESSURE
VSB    - VISIBILITY IN MILES
HX     - HEAT INDEX IN FAHRENHEIT
WCI    - WIND CHILL INDEX IN FAHRENHEIT
TC     - TEMPERATURE IN CELSIUS WHICH IS ALSO KNOWN AS
         TEMPERATURE IN CENTIGRADE
AFB    - AIR FORCE BASE
         LUKE AFB IS LUKE AIR FORCE BASE
         DAVIS-MONTHAN IS DAVIS-MONTHAN AIR FORCE BASE
NAS    - NAVAL AIR STATION
         EL CENTRO NAS IS EL CENTRO NAVAL AIR STATION
N/A    - NOT AVAILABLE


USA.gov is the U.S. government's official web portal to all federal, state and local government web resources and services.